RH
20 16 14 12 15 25 36 40 36 31 28 24 20 18 18 19 20 20 20 19 18 17 16 16 16 16 16 16 17 20 23 21 28 43 36 20 18 21 20 15 14 14 13 13 13 14 15 16 16 15 15 16 15 12 11 13 18 23 35 45 47 57 62 62 70 68 71 85 90 90 91 94 97 94 89 86 91 95 95 97 98 99 100 99 99 99 99 101
26 21 16 12 14 23 35 40 37 32 27 22 19 17 17 18 19 19 20 19 18 17 17 17 16 17 16 16 19 22 26 28 38 46 28 13 16 17 14 12 13 13 12 13 12 13 15 17 18 18 19 18 15 12 10 12 15 29 48 46 44 55 55 55 60 61 71 85 91 91 88 87 93 92 85 90 98 95 96 100 98 100 100 98 98 99 100 100
34 28 21 14 13 18 31 40 38 33 27 21 18 16 16 17 18 19 19 18 18 17 17 17 16 17 15 17 21 25 33 34 32 27 14 10 13 11 11 12 13 13 12 12 11 12 12 15 17 19 21 17 16 12 9 14 11 29 57 53 49 54 53 58 59 64 74 82 89 88 83 86 88 85 82 91 98 95 98 99 99 101 100 99 98 97 99 100
39 34 27 19 13 14 24 36 40 38 31 23 17 15 15 16 18 18 18 18 17 17 17 17 17 16 15 18 22 31 38 27 15 12 10 11 11 10 12 12 12 13 12 12 12 12 12 15 18 20 21 18 18 13 10 16 12 29 58 57 53 56 59 63 63 68 70 74 85 87 86 88 86 83 85 89 91 93 96 95 96 98 97 98 98 97 98 99
38 36 32 25 18 14 17 27 37 41 38 29 20 15 14 15 16 17 17 17 16 17 17 17 17 16 16 19 26 40 38 19 10 12 10 10 10 11 12 11 12 12 12 12 12 13 14 17 21 22 19 15 14 11 9 15 23 40 52 52 54 58 63 62 61 67 70 77 86 88 88 87 85 87 91 90 88 93 97 95 93 93 92 95 96 96 98 98
36 36 35 31 25 18 15 19 28 37 39 35 28 18 14 14 15 16 15 16 16 16 17 16 16 15 17 21 32 42 33 17 12 11 9 10 10 10 11 11 12 11 12 13 13 15 17 19 22 20 19 18 15 12 15 21 35 50 49 49 54 56 61 59 59 68 74 81 86 87 86 88 90 89 95 96 94 97 98 97 94 91 90 92 94 94 96 97
36 34 35 34 31 26 17 14 19 29 36 37 33 24 17 14 14 15 15 16 15 16 16 16 16 16 18 25 36 40 32 22 17 13 10 9 9 10 10 10 11 11 12 12 14 18 20 21 20 22 28 30 28 28 32 36 40 50 50 51 54 54 58 57 61 73 80 84 87 87 84 91 94 87 94 98 98 100 96 95 95 92 91 92 94 94 94 95
37 35 34 33 33 30 22 14 13 21 30 34 34 29 23 17 15 15 15 16 16 16 17 18 19 18 21 28 34 36 31 21 15 15 12 10 10 10 10 10 11 11 12 13 15 19 20 21 18 23 34 33 36 40 38 41 42 47 50 49 52 56 61 64 72 82 87 88 86 86 90 95 96 91 96 99 98 100 97 94 93 92 93 92 93 94 94 94
38 36 33 32 31 31 26 17 12 15 23 30 31 31 28 23 20 19 19 20 21 21 22 25 24 22 25 32 34 29 21 14 13 13 11 11 10 9 10 10 12 12 14 16 17 18 16 17 15 19 31 30 33 39 37 39 41 46 51 52 56 59 66 74 84 87 87 87 83 89 98 97 95 88 86 95 98 97 96 94 93 93 94 95 95 95 94 94
39 37 34 31 30 30 30 23 16 12 17 25 28 30 30 28 26 25 24 25 26 26 26 27 27 26 26 31 34 24 13 11 12 12 11 11 9 9 10 9 11 13 16 17 17 17 14 13 13 15 25 27 29 38 40 38 40 47 53 54 57 60 64 71 85 88 84 84 82 90 100 97 95 82 76 92 98 93 93 95 94 94 95 96 97 97 95 93
39 38 35 32 29 29 30 28 22 13 12 19 25 27 28 28 27 26 25 25 25 24 24 27 28 27 28 34 35 21 12 13 13 11 10 9 9 9 10 10 12 13 16 17 15 14 12 11 11 13 19 24 30 40 43 40 43 47 49 53 57 59 61 69 83 83 78 80 82 89 95 93 91 85 83 95 98 92 93 97 95 95 98 98 98 99 97 95
40 38 38 35 31 29 30 30 25 17 11 13 21 25 25 26 25 26 25 24 24 23 24 27 27 28 32 40 38 21 13 16 14 11 9 8 9 9 10 11 12 13 14 15 13 11 12 10 9 11 17 28 34 40 41 40 45 46 47 54 58 58 59 64 72 72 68 77 86 80 76 85 89 90 93 98 97 93 93 97 97 97 98 99 99 99 99 98
41 39 40 39 34 30 30 30 27 20 12 10 16 22 24 24 24 25 24 23 23 23 26 27 29 31 32 34 28 17 13 14 12 11 10 9 9 9 10 11 10 12 12 12 12 10 10 9 11 13 19 33 35 33 36 36 42 45 47 57 60 61 62 55 55 61 62 76 86 65 58 81 88 90 96 98 97 94 96 98 96 98 98 98 98 98 100 99
42 41 42 42 38 32 30 31 28 21 14 8 12 17 21 22 23 23 22 23 22 24 29 29 29 33 35 30 18 14 13 11 10 10 10 9 10 10 10 11 10 11 11 11 11 9 9 9 11 14 21 33 32 32 40 41 47 48 43 54 65 64 63 58 57 63 61 70 76 59 61 77 75 85 96 94 95 95 98 98 94 97 97 97 97 95 99 98
42 42 44 44 41 35 32 32 27 21 14 8 9 15 18 20 21 21 20 21 21 24 29 30 32 35 40 32 15 13 12 9 10 9 10 11 10 11 10 10 10 10 9 9 10 8 9 8 10 17 23 30 32 39 47 44 53 54 36 43 64 62 58 62 64 66 61 60 61 54 67 74 68 85 93 88 93 94 96 95 94 98 97 97 97 96 100 98
40 40 43 44 42 37 32 31 27 19 12 8 10 15 17 17 18 19 20 20 20 26 29 32 35 33 34 28 14 13 13 11 12 9 9 10 9 11 10 10 10 10 8 8 9 8 8 10 14 20 26 32 37 45 50 49 57 61 43 39 55 57 54 57 56 59 59 56 53 49 65 74 69 84 93 90 92 94 98 95 94 97 98 98 97 98 100 98
39 37 40 43 42 37 33 30 25 17 11 8 12 16 17 16 18 19 21 21 24 30 31 33 36 30 24 19 14 15 16 16 14 10 9 9 9 10 10 12 11 9 9 8 8 9 9 12 15 18 29 40 41 40 41 44 46 51 50 43 50 56 54 52 48 52 55 54 54 50 60 70 72 86 95 92 91 96 99 94 94 96 95 97 97 98 99 98
42 38 36 39 41 37 33 29 22 14 9 9 15 20 21 23 26 29 30 28 30 33 31 34 37 32 22 13 13 17 18 18 16 13 10 9 9 10 11 12 11 11 12 11 9 11 11 15 20 20 28 36 36 37 37 39 37 43 50 44 44 50 49 52 51 51 51 50 55 54 55 62 74 93 98 93 94 97 98 93 93 95 94 96 98 99 98 97
48 43 35 36 39 36 33 28 20 12 8 12 20 25 29 35 37 38 36 32 34 34 30 32 34 31 22 16 18 19 18 18 16 12 9 10 9 10 12 10 12 12 11 14 13 12 14 19 23 19 22 29 30 33 34 36 37 42 53 56 52 46 48 59 56 52 51 50 55 56 58 62 74 95 98 95 96 96 96 95 95 95 95 98 98 98 97 97
48 43 34 35 38 36 33 25 17 10 10 16 22 28 38 48 51 48 43 37 38 34 27 30 32 28 26 25 24 22 19 15 11 10 9 9 8 9 11 11 15 15 13 16 12 12 18 20 23 21 20 25 28 31 32 36 38 39 50 60 56 46 51 56 48 50 51 48 55 56 59 64 72 91 96 94 98 98 97 97 97 98 97 98 98 98 97 96
42 37 33 34 36 35 31 22 16 11 12 18 22 35 46 47 46 46 44 41 40 34 29 32 31 27 27 26 25 21 20 16 10 10 8 8 9 8 10 14 16 15 17 17 17 26 29 22 23 23 20 22 28 35 35 37 41 41 45 47 46 45 51 48 41 48 45 42 58 59 52 54 62 80 92 94 97 97 96 95 96 97 98 97 97 97 96 96
36 33 32 34 36 34 28 20 16 14 17 19 21 36 45 40 36 34 38 43 43 38 34 34 31 30 29 24 24 22 18 17 14 11 10 8 9 9 12 16 15 16 19 17 22 39 37 24 21 21 21 21 27 35 33 35 42 46 45 40 41 46 46 42 41 49 45 43 57 58 49 51 59 76 91 95 95 91 90 90 91 94 98 97 96 97 96 96
35 34 33 35 36 31 25 20 17 18 20 22 25 34 38 39 37 31 34 42 44 41 38 37 33 34 35 24 20 21 16 15 14 12 11 8 10 12 12 14 16 18 17 15 21 31 28 20 18 19 18 15 22 31 30 33 38 42 45 39 38 42 40 38 40 46 47 41 45 51 50 53 61 73 84 89 89 87 86 86 88 91 95 95 93 94 95 97
36 35 36 37 34 29 24 19 21 24 24 27 30 32 34 38 39 34 38 46 48 47 40 33 33 31 28 18 12 16 15 13 14 12 10 10 11 12 11 13 16 16 16 19 22 25 21 16 16 17 16 15 22 28 28 29 28 31 42 46 42 40 39 36 36 46 53 47 45 47 50 60 67 69 76 84 87 86 85 87 89 90 92 92 91 92 94 95
35 37 37 36 33 27 22 20 27 28 26 29 31 31 30 33 37 35 42 51 50 50 34 18 23 22 16 13 10 12 13 12 14 12 8 10 11 10 12 14 14 15 17 19 20 21 17 14 15 16 17 19 21 24 26 27 27 25 31 41 39 35 37 39 40 52 62 58 48 43 51 68 72 63 65 77 87 88 85 87 88 89 93 93 92 93 93 95
34 39 38 36 33 25 21 24 30 29 27 30 31 31 26 28 35 32 46 62 48 37 27 13 16 17 12 13 11 13 17 16 13 11 8 8 9 10 11 15 15 15 17 19 21 20 15 15 17 17 18 20 21 20 21 27 33 26 19 28 36 35 37 40 41 49 61 56 41 42 54 61 58 51 56 74 88 92 88 87 88 87 92 94 93 92 92 95
35 40 36 35 32 27 29 32 33 31 33 35 31 29 24 26 31 26 46 66 43 25 26 22 18 15 14 15 13 15 19 18 13 9 10 8 8 10 10 14 14 12 17 25 26 20 15 16 18 20 22 22 21 16 17 27 29 19 15 23 31 33 36 40 41 46 57 49 40 56 55 43 51 54 60 77 85 89 89 86 87 87 90 92 91 93 92 92
34 38 35 34 29 29 37 39 37 35 35 36 30 26 28 29 32 41 60 60 34 24 28 25 19 14 16 16 14 17 16 16 15 12 11 7 8 10 10 12 13 12 19 26 28 22 16 14 12 18 23 20 17 14 18 22 18 16 19 22 26 28 34 40 38 47 58 42 40 63 48 33 61 69 68 81 79 81 84 77 80 85 87 91 90 91 92 91
33 36 34 31 27 32 38 35 36 36 34 33 27 27 32 32 36 51 65 50 28 27 28 24 22 18 21 18 17 23 18 14 17 15 12 9 7 10 10 13 17 19 20 25 30 21 14 16 15 17 19 16 14 15 20 17 12 17 21 26 31 35 45 48 43 50 59 46 44 58 41 33 61 72 70 68 58 65 74 67 73 81 83 89 91 91 91 93
30 34 32 29 29 34 34 28 30 32 31 29 27 32 34 41 58 61 56 46 35 32 28 25 27 24 24 23 23 26 19 15 19 14 12 11 10 12 11 13 24 30 26 27 30 22 19 25 23 18 16 15 14 15 20 19 15 19 25 28 30 40 58 64 65 61 53 50 54 58 48 36 46 63 68 56 45 58 67 59 61 74 86 88 88 91 92 93
29 31 30 29 30 34 33 30 28 25 27 28 29 38 36 48 79 75 50 42 40 40 36 32 35 33 29 27 26 27 21 21 22 13 13 16 18 22 17 14 29 39 35 33 30 24 23 24 20 19 20 18 16 15 16 20 22 25 32 30 24 37 49 52 64 63 48 47 52 59 55 37 38 50 52 49 48 56 62 56 50 61 82 90 87 90 92 93
27 28 28 29 30 31 30 26 22 18 25 29 33 51 58 56 66 68 55 44 41 45 42 37 38 36 33 30 29 29 24 23 22 15 17 22 25 28 20 18 28 34 35 37 34 28 23 21 20 21 23 19 16 18 17 21 25 30 44 49 45 50 45 44 59 56 46 43 39 49 46 32 43 48 38 43 47 46 51 54 53 56 69 83 88 88 91 94
26 26 26 31 30 24 20 16 15 18 24 34 44 63 77 69 57 62 67 52 41 45 43 39 44 43 37 32 32 33 27 23 23 18 17 25 32 30 24 25 24 25 36 39 40 42 34 30 28 23 24 21 17 20 18 18 21 26 45 51 52 62 50 47 63 54 45 45 39 47 40 29 46 46 34 44 48 46 49 51 59 65 66 78 88 88 92 95
25 27 27 32 28 19 18 15 15 23 27 37 54 60 62 64 59 60 66 58 49 52 47 44 51 48 38 38 38 34 29 25 24 24 27 36 42 38 34 31 23 33 54 48 41 50 45 35 30 22 23 23 20 19 17 21 22 22 38 39 36 55 49 40 53 45 35 47 53 49 36 32 42 39 34 46 54 63 70 72 78 82 81 87 90 91 93 96
25 27 31 32 25 22 23 16 18 28 35 52 72 68 57 61 65 61 62 59 51 49 46 47 59 56 46 54 50 31 24 24 26 32 36 40 43 40 34 31 28 34 49 44 34 41 43 34 31 27 25 24 24 23 19 24 27 25 37 36 24 41 54 50 56 53 44 54 60 48 39 44 44 39 44 51 57 67 76 84 87 88 93 95 94 95 94 95
24 27 35 33 30 36 29 20 25 31 45 70 80 73 69 66 61 56 52 46 41 47 48 44 54 56 50 59 59 39 24 22 32 39 36 36 40 38 31 31 31 28 35 41 35 35 38 33 34 34 28 25 26 26 21 20 29 37 37 33 26 35 53 50 47 62 63 52 50 47 49 56 46 35 41 46 48 54 61 71 80 87 93 92 94 98 96 95
24 36 48 39 34 40 34 31 35 36 56 79 69 63 72 64 51 54 56 44 42 63 72 53 43 46 46 52 56 49 32 22 34 44 38 38 39 33 31 31 30 32 39 41 32 32 40 40 40 35 27 28 28 27 27 22 28 39 33 29 33 36 52 57 51 64 67 49 52 59 56 58 52 43 44 43 41 43 49 59 68 81 87 86 90 96 96 96
34 53 61 46 35 37 40 41 39 47 74 86 72 67 69 53 41 49 54 44 43 66 76 57 39 40 48 49 43 43 37 27 39 49 40 40 40 29 31 32 29 37 45 39 35 40 42 37 40 40 31 34 38 34 37 36 30 33 31 32 36 32 41 56 53 53 53 48 58 66 59 54 53 51 46 43 43 43 47 55 59 68 79 84 87 90 93 96
52 69 61 45 37 36 40 41 45 67 83 76 71 66 54 46 41 45 50 45 49 64 61 47 42 42 48 48 38 37 40 36 42 49 41 40 40 29 30 32 26 35 45 40 40 49 46 35 36 40 34 36 48 46 44 49 44 39 41 47 53 47 40 45 48 50 55 57 59 60 59 56 56 56 47 41 48 48 47 53 54 59 73 84 85 85 89 93
73 79 59 43 39 37 39 42 54 74 70 61 73 69 47 41 37 39 48 43 43 51 48 46 49 42 41 46 39 37 47 50 49 52 46 42 38 31 35 36 26 34 48 48 50 57 55 43 37 44 47 48 51 45 39 44 45 46 51 54 58 53 41 42 50 56 60 66 69 62 60 67 67 60 49 43 49 52 50 52 52 56 65 76 83 84 84 88
85 77 64 50 41 40 44 46 55 70 63 56 70 67 47 39 34 37 47 43 38 40 46 57 56 45 43 44 38 41 57 61 55 53 49 43 42 36 36 40 35 36 47 53 54 51 47 48 49 52 57 55 45 39 41 44 48 56 56 52 52 48 47 50 54 63 64 63 71 67 60 69 66 52 49 50 52 55 56 54 53 55 57 63 75 81 81 84
85 68 59 49 38 36 43 50 58 70 69 59 57 52 45 43 39 39 42 41 40 39 44 51 49 47 47 39 40 55 68 63 54 52 47 43 46 40 35 46 52 50 53 49 44 51 62 69 65 54 52 51 41 39 48 52 56 59 53 57 60 50 57 65 60 67 66 55 65 67 61 69 67 60 64 63 59 59 59 58 57 55 56 58 65 72 76 80
95 74 54 41 36 37 41 46 52 61 72 71 58 47 46 48 45 40 40 42 40 39 42 42 40 42 42 38 43 55 63 57 47 46 45 43 42 37 40 54 56 53 55 44 36 51 66 67 63 62 68 66 52 47 55 59 61 58 56 68 66 50 62 77 71 69 63 57 65 62 59 70 71 73 77 68 63 63 59 60 58 54 57 61 63 67 71 76
99 87 71 49 34 36 41 42 44 54 72 74 55 42 44 49 47 41 40 42 41 42 44 44 41 40 42 49 51 48 52 53 45 43 46 45 40 37 48 60 51 41 42 41 39 43 48 54 60 66 70 68 63 65 66 62 64 63 63 71 67 59 66 71 69 67 58 61 69 61 64 74 68 68 69 59 59 59 53 58 60 57 59 62 64 67 67 69
85 78 83 64 40 42 54 64 69 68 72 67 51 47 47 41 43 46 44 46 50 53 47 42 44 48 53 61 60 56 57 55 49 49 48 49 46 43 50 57 50 44 48 56 61 56 54 60 60 61 67 71 77 82 73 63 65 67 69 69 66 65 63 56 57 60 56 62 66 61 66 69 59 55 53 51 57 56 53 58 61 61 62 64 68 69 67 68
74 67 79 71 58 56 56 73 83 70 67 67 54 50 49 38 38 45 43 43 51 60 57 49 48 50 56 64 64 62 63 59 55 57 55 55 52 48 53 57 55 61 69 71 74 74 72 70 69 77 82 78 80 82 70 63 62 61 62 62 63 69 67 62 60 59 63 70 69 70 69 58 51 49 45 49 57 57 60 62 58 57 64 69 72 70 67 66
72 70 78 66 63 65 53 59 70 59 58 61 48 45 51 46 42 41 38 41 51 58 59 58 56 48 47 60 63 59 65 67 63 62 61 59 58 55 56 54 53 66 74 66 66 78 78 69 70 78 76 72 78 76 66 63 61 60 60 56 61 71 66 58 58 58 62 66 70 82 77 56 53 57 49 49 55 58 63 64 59 61 68 72 71 66 62 60
68 74 83 64 58 68 59 56 67 65 59 58 53 55 55 48 45 42 38 46 57 58 54 56 63 60 53 60 64 62 66 66 62 66 64 59 63 62 53 46 49 61 66 60 67 84 80 65 63 64 61 69 80 80 74 71 65 65 68 60 60 71 64 54 62 68 62 56 65 79 75 62 61 61 53 50 55 59 60 59 63 66 68 69 66 60 58 57
79 86 92 78 67 74 74 69 69 62 60 65 63 61 60 51 46 45 45 52 60 64 63 58 60 68 71 75 78 73 69 63 59 65 64 58 63 62 51 45 48 55 57 54 66 79 69 60 68 66 55 58 73 82 80 75 65 59 67 72 70 74 74 64 68 76 66 58 68 76 73 70 67 60 55 56 63 69 69 69 71 66 63 64 62 58 55 54
87 90 93 91 85 86 85 80 70 54 56 69 60 57 67 60 49 53 59 60 56 57 65 65 63 71 79 83 79 68 69 75 66 61 61 57 59 64 59 51 48 55 60 55 59 62 48 53 76 77 60 59 73 83 81 76 68 53 61 82 79 68 69 66 66 74 67 59 67 68 63 69 72 68 65 65 70 70 64 63 64 60 63 64 58 57 56 55
84 87 91 96 96 92 78 73 75 60 55 64 57 54 65 58 55 64 61 57 60 60 64 68 69 71 73 75 68 56 65 78 67 59 63 59 55 59 59 54 47 51 60 56 55 56 51 58 75 73 63 64 71 80 84 80 72 59 57 69 66 56 56 56 59 66 59 53 59 58 57 64 68 67 65 63 68 66 57 59 60 58 67 68 59 57 60 64
90 88 88 89 90 87 72 66 73 63 57 71 69 59 59 56 62 70 58 54 65 68 68 68 68 68 65 64 60 55 66 77 68 64 65 58 57 59 61 62 53 47 59 60 55 63 69 70 73 68 63 66 73 83 88 83 75 70 63 55 49 52 60 62 65 71 66 58 56 57 61 66 65 67 68 66 67 64 58 59 58 54 61 67 65 65 67 69
Wind_Speed
17 15 14 13 12 12 12 10 9 8 7 7 6 6 6 7 7 7 8 8 9 10 11 12 13 14 16 17 18 18 16 12 9 5 3 4 3 2 3 2 2 4 4 5 5 5 4 3 5 8 5 4 3 1 1 1 2 4 3 3 1 3 3 4 5 4 4 5 4 3 2 6 3 2 1 3 7 6 5 4 3 4 5 6 8 10 12 10
19 17 16 14 13 13 12 11 9 8 7 7 7 6 7 7 7 8 9 9 9 10 11 13 14 16 18 19 19 18 15 12 7 4 3 2 0 1 0 3 3 3 3 4 6 6 5 3 4 7 5 2 2 1 0 0 4 3 3 3 2 4 2 3 6 4 4 6 5 3 2 4 5 3 1 2 3 4 5 3 3 7 8 9 9 10 11 10
21 19 17 15 14 14 13 11 10 9 8 7 7 7 7 7 8 8 9 9 10 10 12 13 15 17 18 19 19 18 13 8 3 2 3 4 3 3 4 4 2 2 3 4 5 6 4 2 3 5 5 2 1 1 1 1 2 2 3 2 3 4 1 2 5 5 5 9 8 4 1 2 3 3 2 3 4 2 4 3 4 8 8 9 8 10 10 8
24 22 20 18 16 14 13 12 11 10 9 7 7 7 7 7 8 9 9 10 10 10 12 13 15 17 18 19 19 15 10 4 1 1 3 3 3 3 3 2 1 0 1 2 3 3 2 3 5 4 4 2 2 2 0 1 1 2 3 2 4 3 3 3 5 8 6 8 8 5 4 3 3 2 2 5 4 1 3 3 3 8 11 10 8 9 8 6
26 25 23 20 17 15 14 13 11 10 9 8 7 7 7 7 8 9 10 10 10 10 12 13 15 16 17 19 17 11 6 5 1 2 2 2 1 1 2 2 1 1 1 2 3 2 3 4 5 4 4 1 2 2 1 2 3 3 2 3 3 4 4 1 6 9 7 7 8 7 5 2 1 1 3 3 2 2 2 1 2 7 9 10 9 9 7 6
27 27 25 23 20 17 14 13 11 10 10 9 8 7 7 8 9 9 9 9 10 10 12 13 15 15 16 18 14 6 3 2 3 1 3 1 1 1 1 1 2 2 2 2 2 3 3 3 4 3 3 2 2 2 2 3 4 4 1 1 2 5 6 4 6 7 7 8 7 6 3 1 2 2 2 3 2 3 4 4 3 3 5 8 9 8 6 5
27 27 27 25 23 19 16 14 12 11 10 10 9 8 7 8 9 9 9 10 10 11 12 13 14 13 15 16 10 3 3 1 3 3 4 2 1 3 3 3 3 3 4 3 2 3 3 4 4 4 4 3 2 2 1 2 4 5 3 3 5 6 6 4 5 6 6 7 5 3 2 2 2 1 2 2 3 5 5 6 6 3 3 6 6 5 4 4
27 27 27 26 25 22 18 15 12 11 11 10 10 9 8 8 9 9 9 10 10 12 12 13 13 12 14 12 4 3 2 1 1 3 5 3 3 4 3 4 4 4 4 4 2 2 3 3 2 3 5 2 2 2 1 4 5 5 4 2 4 6 5 6 7 7 7 6 4 5 4 3 2 1 1 2 3 6 4 5 7 5 4 3 3 4 4 4
28 28 27 27 26 25 21 17 14 12 11 11 10 9 9 8 9 9 10 10 11 12 12 12 11 10 11 7 2 3 2 2 4 3 4 3 4 4 4 4 4 3 2 3 2 1 2 1 1 4 5 1 3 3 2 4 2 2 4 4 6 5 4 7 7 7 7 3 3 6 4 4 3 3 2 1 4 6 4 5 5 5 3 2 1 2 3 4
28 28 28 27 26 25 24 20 16 13 11 11 10 9 9 9 9 10 10 10 11 11 11 11 10 10 8 4 5 4 3 5 6 2 2 4 5 5 6 6 5 3 1 1 1 1 1 1 2 5 6 3 3 3 4 3 2 4 9 7 8 6 3 6 7 5 5 2 2 5 2 2 3 3 1 1 5 5 4 4 3 4 3 1 1 1 2 4
27 28 29 28 27 25 25 23 19 14 12 10 10 10 9 9 10 10 10 10 11 11 11 10 9 9 6 2 5 2 4 8 6 3 1 4 5 6 7 6 6 2 3 1 2 3 1 2 2 3 3 2 3 5 5 2 4 7 11 9 7 7 5 5 7 4 3 3 2 5 4 3 5 2 3 2 4 5 2 3 3 4 2 1 0 1 1 2
28 28 29 29 27 26 25 25 21 16 12 10 10 10 9 10 10 10 11 11 11 10 10 9 8 8 5 3 4 2 7 9 6 4 3 5 7 8 8 8 7 4 3 1 2 2 2 3 1 4 1 3 4 3 3 2 5 6 8 7 4 6 5 2 4 3 2 1 2 5 3 5 4 3 4 0 5 4 1 2 2 3 2 2 2 2 3 2
29 29 29 29 28 26 26 26 24 18 13 10 10 10 10 10 11 11 11 11 11 11 10 8 9 7 3 2 2 2 8 7 5 5 5 6 8 10 10 10 9 6 4 3 3 3 2 3 3 6 3 5 3 1 3 4 5 5 5 5 3 5 1 2 1 2 2 3 6 4 2 4 6 6 2 4 5 2 1 1 1 3 3 2 2 2 2 3
29 29 29 29 28 27 27 27 25 19 13 10 10 10 10 11 11 12 12 12 11 10 9 8 8 4 1 3 3 6 9 7 5 6 6 7 9 10 8 6 7 7 6 7 5 4 2 1 6 7 2 4 4 2 5 5 5 4 3 3 3 3 3 4 0 4 3 3 6 4 1 5 7 7 3 5 4 1 2 2 1 1 2 1 1 1 1 1
28 29 29 29 29 28 27 27 25 20 14 11 10 9 10 11 12 13 12 12 11 10 8 6 6 3 2 3 3 8 9 6 5 6 6 8 9 8 6 7 11 11 10 8 3 3 4 6 7 5 2 3 6 6 4 3 4 3 2 2 2 2 2 6 2 7 5 2 4 3 0 4 6 4 1 2 1 2 4 4 3 3 1 1 1 1 2 2
28 29 29 29 29 28 27 27 25 20 15 11 10 9 9 10 12 12 11 11 10 8 4 3 5 5 3 3 6 9 6 4 7 8 7 9 9 9 10 13 13 12 11 5 1 3 7 9 5 3 4 3 6 7 4 3 3 4 1 2 2 2 1 3 2 5 5 3 3 2 1 2 4 2 4 3 4 4 5 5 4 4 3 2 3 2 2 3
28 29 29 29 29 28 27 27 25 20 15 12 10 8 8 10 11 11 10 8 5 3 2 2 3 5 1 5 7 5 3 6 10 9 8 9 9 11 10 8 6 8 10 5 2 3 5 6 2 1 4 4 3 5 4 3 3 3 2 1 2 2 2 1 3 3 3 3 3 1 2 4 5 3 6 6 6 5 5 6 5 4 4 4 3 3 3 3
29 30 30 28 28 28 28 27 24 20 15 12 11 9 8 7 6 5 4 2 1 2 3 1 2 4 2 5 4 4 8 11 11 9 8 8 8 10 8 3 3 6 7 5 5 4 3 3 2 2 3 3 2 5 3 3 3 3 2 1 1 1 2 2 3 4 5 4 3 3 3 7 5 3 6 6 6 6 6 5 5 6 6 4 4 4 3 3
30 31 30 28 28 27 27 27 23 19 14 12 11 8 5 3 3 2 1 2 1 1 1 1 1 2 3 4 4 8 11 11 10 7 6 4 4 5 4 1 2 3 4 3 4 4 2 3 3 1 1 1 4 5 6 7 5 5 4 4 3 1 2 4 4 4 6 5 3 5 4 5 4 3 6 6 5 6 5 4 4 6 6 4 4 4 5 4
31 31 30 28 27 27 27 25 22 18 13 11 10 5 3 4 4 3 2 1 2 3 3 3 2 1 4 4 5 8 9 6 4 3 2 2 4 5 2 3 5 5 3 1 2 3 4 4 2 4 5 6 6 5 5 5 5 6 5 4 4 2 3 4 3 4 5 5 3 4 4 5 5 5 7 5 5 6 6 5 5 6 6 6 5 5 6 5
31 31 29 27 27 27 26 24 21 15 10 11 11 5 2 1 2 2 4 3 4 5 5 5 5 4 7 8 7 4 3 3 3 2 1 1 3 2 2 4 6 5 3 1 1 3 5 3 4 7 8 6 5 5 6 6 5 5 5 4 2 2 4 4 1 2 3 4 3 2 2 6 5 5 5 5 6 8 9 8 7 7 7 6 6 6 6 5
32 31 29 27 27 27 25 24 17 10 8 10 9 4 2 1 2 4 2 2 6 4 4 5 3 4 8 9 8 1 4 3 6 7 2 2 3 1 1 4 5 2 4 2 2 5 6 1 9 8 7 5 5 5 7 6 5 5 4 4 1 2 3 3 3 1 2 2 3 2 2 5 5 5 5 7 9 7 7 8 6 6 7 6 7 6 5 4
32 30 28 27 27 26 25 21 10 6 8 8 8 5 4 8 6 4 2 1 5 4 2 2 1 3 5 4 3 4 4 2 2 7 3 3 3 1 3 4 3 1 4 3 4 3 2 4 7 5 5 7 6 5 7 6 4 3 4 4 2 3 1 2 3 2 2 2 1 0 1 5 4 2 3 5 6 2 2 6 5 6 8 8 7 5 5 6
31 30 27 28 27 25 24 14 5 8 8 5 8 10 10 12 8 1 2 2 3 5 3 2 2 3 2 2 2 5 2 2 2 4 2 5 2 1 2 1 3 3 4 2 7 5 3 6 3 4 4 7 6 5 6 5 2 1 3 5 2 3 3 2 1 1 3 2 2 4 4 5 4 2 4 3 2 2 2 4 5 5 7 6 5 5 5 6
31 29 27 28 26 26 20 6 4 11 6 4 5 13 13 11 9 2 2 3 2 5 4 1 1 1 2 2 0 2 2 1 3 3 1 5 3 1 0 1 4 3 2 5 7 3 3 4 1 3 4 6 7 4 3 5 3 2 3 6 6 5 5 3 2 3 5 4 3 3 3 5 5 3 5 4 1 4 3 4 6 5 5 5 6 6 6 6
30 28 27 27 26 27 14 2 8 12 3 2 8 14 12 9 8 3 3 4 1 4 4 1 1 2 4 3 1 2 5 2 5 2 2 3 3 3 1 1 3 2 3 5 4 2 2 2 3 2 4 6 6 4 3 5 6 1 3 5 5 6 7 6 5 4 3 2 3 2 4 3 6 4 5 5 4 5 4 5 7 5 5 6 6 7 6 7
29 27 27 25 26 26 10 1 12 10 1 5 12 14 10 6 4 1 4 6 1 2 3 2 2 3 3 3 2 3 2 4 4 1 2 2 0 4 3 2 2 1 2 3 3 1 2 3 6 5 6 6 5 3 4 5 7 1 2 6 7 7 7 7 6 4 2 3 3 4 4 1 4 4 6 5 4 5 5 7 7 6 7 7 7 7 8 8
28 27 27 24 25 23 9 6 12 5 2 9 13 13 9 3 2 1 5 4 1 2 0 2 3 3 3 3 4 3 2 3 1 1 2 4 2 3 4 1 3 1 2 5 3 4 1 2 3 3 6 4 1 3 6 7 4 4 4 6 6 6 6 5 6 3 1 2 3 5 1 1 4 5 5 3 3 6 7 8 8 7 8 8 7 7 8 8
27 27 26 24 23 16 7 9 9 3 6 12 13 12 6 2 2 4 5 2 2 2 1 1 3 3 4 3 3 3 1 1 1 4 4 6 3 3 3 3 6 3 3 6 5 4 1 1 2 4 5 1 3 4 5 6 1 3 5 7 5 5 5 4 5 4 3 3 2 6 1 1 4 5 4 4 2 5 7 7 5 6 8 8 8 8 8 7
27 26 26 25 20 11 9 11 6 4 9 12 13 9 2 3 4 5 3 1 1 2 1 1 2 2 4 3 3 4 1 1 2 3 3 3 4 5 3 2 6 6 3 6 3 2 3 3 1 4 2 2 3 1 3 3 1 4 7 6 6 6 5 4 3 4 4 2 5 6 2 3 2 5 3 1 1 4 5 6 5 2 6 7 8 8 8 7
26 25 25 24 18 10 8 6 3 6 10 12 11 4 3 4 4 6 1 2 1 2 1 1 2 3 5 3 1 3 2 2 4 4 3 3 6 6 4 2 4 5 5 7 4 4 6 5 2 1 1 0 2 2 1 1 2 5 5 5 4 3 4 4 5 4 4 1 5 6 3 4 1 4 4 4 6 6 4 5 7 3 3 7 6 6 7 7
25 24 23 19 13 9 6 3 4 8 10 11 9 3 4 3 2 2 1 2 1 1 0 1 3 3 4 2 2 3 2 2 4 4 2 2 4 4 3 1 1 3 3 3 3 5 5 2 4 5 2 3 5 3 4 6 6 5 5 5 4 2 4 3 3 3 1 2 2 3 2 2 2 5 5 7 8 7 5 6 6 6 3 5 5 5 5 5
25 24 19 12 10 10 9 7 7 8 10 9 5 4 6 4 0 2 1 2 1 2 0 1 2 2 2 3 3 3 3 2 2 3 2 2 5 3 3 1 2 3 1 1 2 4 3 4 7 8 4 3 5 4 2 4 5 5 3 4 3 2 3 2 3 2 2 3 3 3 1 1 3 4 5 7 8 8 6 4 3 3 2 4 5 4 4 4
25 22 16 10 9 9 7 6 5 6 9 7 4 4 4 2 2 2 1 2 2 1 1 0 2 4 4 3 2 2 3 4 3 3 3 4 5 4 5 5 4 3 3 3 2 2 2 3 6 4 3 4 3 3 3 3 3 2 3 5 3 4 3 1 2 1 2 4 4 4 2 1 1 3 5 7 7 5 4 2 2 3 2 2 3 3 3 4
24 19 13 9 7 5 4 3 3 3 5 4 6 5 3 2 3 2 2 4 2 1 1 1 4 5 4 3 3 1 3 2 4 5 5 4 3 2 3 4 5 3 4 3 0 1 3 1 5 4 3 3 4 1 3 5 3 1 2 4 2 3 4 3 2 3 2 1 3 3 1 3 3 4 6 5 4 4 5 5 5 5 4 4 4 3 3 4
22 17 8 5 4 2 1 3 2 2 3 4 6 3 3 3 2 3 3 2 2 2 0 3 5 5 4 4 4 4 3 2 3 4 4 3 1 2 2 3 4 3 3 4 1 0 3 1 5 6 5 4 4 2 0 3 1 1 3 2 2 3 7 5 1 1 4 3 1 2 2 5 2 2 6 7 7 7 8 7 6 5 4 5 4 2 3 4
23 17 6 3 3 1 2 2 1 2 3 6 5 1 3 3 3 4 2 1 2 3 5 2 2 2 1 2 3 6 5 3 3 3 3 3 2 4 4 3 2 2 2 4 2 2 4 1 5 4 3 2 2 2 3 3 3 2 2 2 2 2 4 4 2 3 5 2 2 3 2 5 2 0 5 10 9 8 8 7 7 6 5 4 1 3 4 5
22 15 5 3 1 3 3 1 0 2 4 5 2 2 2 1 2 3 2 2 2 4 6 3 0 1 2 1 2 5 3 2 2 3 2 2 2 2 3 3 2 4 1 3 3 1 3 1 6 2 2 6 4 4 4 6 3 4 4 2 2 2 1 2 2 1 2 1 2 4 3 2 1 2 5 7 6 8 8 7 7 6 6 5 3 3 4 5
15 7 3 5 1 4 3 2 1 3 5 3 1 2 1 2 2 2 3 2 2 4 4 2 1 2 2 3 1 2 3 2 1 3 2 1 1 1 2 1 2 5 5 4 4 1 2 2 4 4 2 4 5 5 2 5 6 5 3 3 2 3 2 1 2 2 1 2 1 3 3 2 4 5 4 5 7 7 6 6 6 6 5 5 5 4 4 5
7 1 2 7 2 6 4 1 2 5 4 1 3 2 1 2 2 2 2 1 2 2 2 2 1 2 1 1 1 0 3 3 2 3 2 1 1 0 2 1 2 4 5 6 5 0 2 4 1 6 5 3 3 2 0 2 3 4 4 4 3 2 1 1 1 2 2 3 2 0 2 4 6 4 4 6 7 6 6 5 5 7 6 5 6 6 5 4
4 1 4 7 3 7 4 3 3 3 2 1 2 2 2 1 0 3 3 1 2 1 3 5 4 3 2 1 1 1 3 4 3 3 2 1 2 1 1 1 1 3 3 6 5 1 1 2 2 3 4 3 1 3 2 2 2 4 3 2 0 1 1 2 1 2 1 2 2 2 1 6 6 3 4 6 5 5 5 5 5 6 7 6 7 7 6 6
3 1 3 5 3 6 5 3 1 1 2 1 2 2 1 1 2 2 4 2 3 2 3 4 3 2 2 2 2 2 3 3 3 3 2 0 2 2 2 2 1 1 3 3 2 1 2 3 3 1 0 1 5 5 2 0 3 5 3 2 2 1 3 4 1 2 1 2 2 3 1 5 6 3 3 5 5 6 6 5 5 6 6 6 6 5 5 5
2 1 3 4 3 4 6 2 2 2 0 3 2 1 1 1 1 1 2 3 3 2 4 3 1 2 1 1 2 3 3 3 2 2 1 1 1 3 4 4 2 1 4 2 2 1 2 3 3 2 3 4 6 6 3 2 5 5 3 2 2 2 2 4 4 3 2 1 2 2 1 5 6 4 4 5 5 6 6 4 4 6 6 5 5 5 4 4
1 3 3 4 3 3 4 2 2 1 3 3 2 1 1 1 2 1 1 2 2 2 3 2 0 2 2 2 3 3 2 3 2 1 1 1 1 2 3 5 2 2 2 1 2 1 1 1 3 3 4 5 5 6 6 5 4 2 2 3 1 2 3 2 2 3 1 2 4 3 2 6 6 4 5 6 5 7 8 4 3 5 7 6 5 6 4 3
1 2 3 4 4 4 2 3 4 3 2 2 2 0 1 2 2 1 2 2 2 2 3 1 1 2 3 3 5 4 3 4 2 1 1 1 2 3 4 6 4 3 1 1 2 3 3 2 2 4 3 2 1 2 3 2 3 1 2 5 3 3 3 1 1 3 1 2 4 4 4 6 7 6 6 6 5 7 9 7 4 4 5 5 5 5 5 4
1 0 2 4 5 4 1 1 4 4 2 2 2 1 2 2 1 2 2 4 2 3 4 2 1 3 5 5 5 5 6 4 3 2 2 1 3 2 4 5 4 4 4 6 6 4 4 2 1 5 6 5 5 6 5 1 1 2 4 5 3 2 2 2 3 1 2 2 1 4 5 3 8 8 7 7 5 5 7 7 7 5 5 5 4 3 2 2
1 1 1 0 2 2 2 2 3 2 2 3 3 0 1 2 1 3 3 3 1 3 4 3 3 3 2 3 5 3 4 5 5 3 1 1 3 3 4 3 5 6 4 4 4 3 5 2 1 5 4 5 6 5 1 2 1 2 2 4 4 3 2 2 1 3 3 3 3 6 4 2 7 7 7 8 7 5 6 6 7 7 6 4 4 3 1 3
1 1 1 2 1 1 1 3 1 3 1 2 2 1 2 2 2 1 2 2 2 3 4 3 6 3 4 5 5 2 2 4 4 2 0 1 2 3 5 3 4 7 5 4 3 3 6 1 1 2 0 3 3 2 1 2 2 2 3 4 5 4 1 3 4 5 5 4 5 5 4 4 7 7 7 8 6 5 6 6 5 4 4 3 3 4 5 6
0 0 1 0 1 4 4 2 1 4 3 1 1 1 3 4 3 1 0 3 3 4 4 4 3 4 2 5 6 4 2 2 1 2 2 1 2 2 3 2 2 5 6 4 4 2 4 1 1 2 2 3 3 4 2 1 1 3 3 5 4 4 5 5 4 4 5 5 4 2 2 6 8 6 7 7 5 6 5 4 3 3 4 2 4 6 5 6
1 1 1 2 2 2 2 1 2 5 2 0 1 1 3 5 4 1 1 3 3 2 4 6 3 1 2 4 7 5 6 7 5 3 4 3 1 0 1 1 1 4 6 3 2 2 2 0 1 3 3 4 5 5 3 2 1 2 5 5 4 4 2 1 1 1 1 3 2 3 2 6 6 4 6 7 6 4 2 2 4 3 3 2 4 6 6 6
1 1 1 3 1 3 1 1 2 5 2 0 3 3 2 3 5 4 1 1 5 3 3 9 8 3 3 6 8 6 7 8 8 7 8 6 2 2 1 2 3 2 5 2 1 2 3 1 1 4 3 3 5 5 5 4 4 3 6 6 5 5 3 1 1 1 1 3 4 4 3 5 5 6 7 7 6 4 1 2 4 4 5 4 4 4 5 5
1 1 1 3 0 2 0 1 1 3 3 3 3 3 2 4 5 5 4 2 1 2 4 10 9 4 5 6 5 7 9 8 7 7 7 5 2 3 2 2 4 2 0 2 1 1 3 3 1 3 2 4 5 4 4 4 7 4 5 4 3 4 3 3 3 3 2 1 0 1 3 5 5 7 8 8 8 7 3 2 3 4 5 5 4 4 5 5
Wind_Direction
13 12 9 8 10 12 9 5 6 2 356 346 338 335 333 337 337 335 334 335 339 339 343 343 344 345 345 346 346 343 337 332 325 304 272 290 291 274 320 14 111 104 98 74 72 108 93 68 35 28 69 80 20 356 338 255 97 60 81 98 157 177 190 194 171 175 143 151 184 200 149 129 164 263 196 68 64 85 80 75 82 73 85 99 113 134 142 150
16 15 12 10 12 14 12 9 7 1 355 347 340 335 332 334 330 328 327 331 337 339 343 342 346 346 345 347 345 341 336 330 315 274 289 328 252 204 110 124 123 83 66 54 48 60 53 18 20 35 54 50 329 16 43 226 86 86 106 98 215 192 198 197 156 152 138 145 153 164 179 140 160 187 151 103 102 116 98 86 117 104 101 113 125 144 154 160
19 17 15 13 13 15 13 12 10 2 356 349 339 333 330 328 324 323 324 329 336 340 342 342 346 345 344 345 343 340 332 330 323 287 17 52 103 129 143 142 119 68 31 43 39 40 55 48 56 62 58 60 296 1 120 45 80 143 111 79 249 202 153 8 130 134 143 142 136 149 184 124 170 181 116 130 139 146 149 152 141 133 133 134 139 153 164 167
22 20 17 16 15 14 13 13 10 3 357 350 340 334 326 323 320 318 323 330 337 341 340 341 344 343 343 342 342 338 332 7 33 319 47 67 95 122 146 145 134 115 1 54 57 46 87 103 81 78 77 91 295 344 160 290 98 109 92 148 220 167 85 18 114 117 127 134 131 141 132 135 208 188 110 135 139 228 201 204 183 156 149 145 149 163 170 157
24 22 19 17 15 13 12 10 7 4 360 351 343 334 325 323 318 318 325 332 337 338 337 339 342 341 341 341 341 332 348 54 286 290 77 104 92 129 159 158 188 254 308 58 67 85 111 104 82 59 72 105 327 24 286 285 95 71 43 174 180 125 112 143 123 117 127 120 120 137 142 161 219 79 97 120 124 300 283 307 163 154 151 151 153 161 164 140
25 23 21 18 14 12 9 6 4 4 1 354 348 336 329 325 319 321 326 333 336 334 335 338 339 340 341 340 338 330 34 94 246 213 110 159 119 202 198 218 248 279 299 26 67 110 106 78 76 72 71 67 61 87 269 297 86 94 31 27 58 102 125 150 122 117 127 120 129 148 150 41 73 88 88 93 75 16 353 17 80 130 139 145 144 144 146 133
23 22 22 19 16 12 6 4 1 0 1 358 352 343 335 327 324 325 328 334 333 332 335 336 337 341 343 340 335 358 94 218 260 141 149 183 199 239 223 240 257 277 303 350 45 111 98 61 82 123 87 73 138 140 268 356 62 100 110 27 45 72 95 112 108 102 103 111 131 125 86 47 91 126 65 52 65 51 14 27 63 76 95 132 142 132 122 114
20 20 20 19 16 12 6 2 358 356 358 358 356 351 342 333 329 328 332 335 332 334 335 335 339 342 344 341 335 10 32 257 10 139 179 207 226 247 238 250 265 278 314 342 323 166 124 70 93 126 86 69 131 123 77 53 39 77 103 79 66 57 65 84 90 91 85 89 102 86 58 18 19 357 27 350 44 60 37 38 63 81 81 108 149 145 119 110
17 16 16 16 14 12 6 0 355 351 353 355 355 353 348 342 336 334 337 337 336 337 336 338 339 340 342 339 50 31 312 324 35 126 186 227 240 254 251 255 270 273 343 354 316 190 145 85 146 129 122 134 90 81 12 48 34 81 87 85 83 73 76 91 87 89 98 98 102 84 31 348 345 337 335 355 65 65 51 54 66 93 98 84 153 174 140 144
13 12 13 13 11 9 6 0 353 348 348 349 348 348 348 345 340 340 343 342 339 338 341 339 334 337 335 339 66 66 303 349 23 79 204 246 248 258 260 263 270 259 131 7 302 169 15 344 173 126 120 111 70 39 11 59 148 99 89 76 78 91 71 85 93 84 98 70 42 108 104 292 315 350 318 335 75 77 66 85 96 113 114 91 199 225 146 155
10 8 8 8 8 5 3 359 352 347 344 341 340 339 341 339 337 340 344 344 340 340 341 335 334 334 325 32 86 100 335 357 5 8 281 252 262 270 272 276 273 243 163 179 252 228 282 291 183 118 101 94 70 38 28 82 115 96 98 75 53 79 67 73 101 105 101 44 15 118 118 317 328 353 240 254 95 102 117 138 143 132 110 63 258 314 89 120
7 5 4 4 4 1 359 357 352 347 341 336 332 329 332 328 328 334 337 338 336 337 335 333 334 325 327 54 131 213 347 351 328 324 287 260 271 275 285 297 297 290 260 253 274 241 237 276 94 92 143 124 99 63 61 76 84 82 85 81 45 55 71 89 101 126 113 84 159 118 65 329 307 260 250 187 100 110 171 179 144 109 70 26 18 20 43 55
3 2 0 360 360 358 356 354 352 347 340 334 324 323 324 317 320 326 328 331 330 331 330 331 330 323 350 2 229 324 350 342 305 281 267 269 273 279 289 298 310 318 297 286 300 322 317 275 103 106 128 102 93 159 105 61 61 66 49 80 81 43 83 206 112 152 103 137 170 125 9 285 274 271 293 70 83 74 304 307 36 71 51 27 33 36 23 32
359 357 356 355 356 355 353 352 351 346 339 333 323 320 315 310 314 316 319 322 322 325 326 333 335 337 30 285 284 3 347 333 308 272 264 273 280 294 298 310 338 346 318 299 309 351 7 146 104 93 78 90 116 104 61 33 34 71 63 47 77 101 222 266 252 153 129 169 171 102 15 253 273 289 0 62 74 95 240 265 279 93 66 36 34 98 284 335
354 352 352 352 352 352 350 350 349 344 340 334 328 320 308 304 305 307 311 313 317 322 323 344 356 13 28 303 319 349 335 332 321 296 286 281 289 307 311 325 333 339 333 311 317 41 78 108 98 81 39 34 92 89 42 19 21 49 94 324 324 139 249 300 271 169 162 172 161 115 292 263 277 281 47 74 119 186 223 233 226 220 184 218 275 200 259 282
350 348 348 348 349 349 347 348 347 342 338 336 334 320 302 297 297 301 302 306 315 319 328 10 17 47 76 306 331 344 338 345 332 316 302 289 283 281 294 313 317 333 343 323 196 88 82 82 66 72 95 63 86 102 60 30 3 353 72 208 234 118 64 314 280 204 178 142 161 179 215 274 288 235 169 190 215 213 226 242 238 229 225 235 261 276 289 295
348 346 346 345 346 346 345 347 345 339 337 339 335 318 303 295 293 296 297 307 313 319 19 51 30 48 18 299 329 341 323 329 326 310 299 294 277 266 281 314 321 334 343 344 33 57 70 67 48 34 70 73 94 102 71 359 294 301 26 98 213 151 128 239 277 240 174 158 184 171 214 258 286 226 181 191 206 208 221 238 238 226 231 238 256 282 285 282
348 346 344 344 344 344 345 347 343 337 337 342 340 329 316 300 297 300 286 296 334 37 43 49 43 49 316 304 324 303 299 311 317 303 288 289 272 258 259 278 329 342 358 9 21 35 43 39 92 104 26 40 82 95 115 229 220 200 186 106 267 255 167 197 242 218 160 159 174 146 234 264 283 237 191 195 193 203 220 224 229 225 225 230 239 258 261 256
346 345 344 342 342 343 344 345 341 335 336 349 349 340 343 358 31 33 126 116 68 5 18 268 31 81 229 266 283 297 304 303 304 289 268 270 242 222 223 223 359 25 42 13 348 8 42 33 39 73 303 228 185 162 173 201 174 157 167 138 148 219 253 223 243 235 161 137 188 182 216 258 261 217 200 202 188 198 220 211 211 218 221 229 230 245 249 239
346 345 343 341 340 342 344 344 339 332 337 355 357 1 33 30 33 0 331 83 197 201 202 212 183 212 260 268 287 311 316 306 291 260 206 191 167 150 112 37 32 42 51 348 310 349 57 60 325 236 227 232 214 187 161 160 130 122 119 105 133 158 278 263 278 263 160 127 238 209 206 250 249 231 212 194 182 203 219 213 209 207 213 226 223 233 243 242
346 345 342 341 340 341 345 342 336 334 345 1 8 40 117 92 62 333 314 308 260 214 216 229 201 238 263 264 285 327 355 334 312 297 218 153 116 109 334 19 42 18 329 283 299 351 52 64 263 233 222 221 189 153 119 107 83 91 113 105 119 172 255 265 285 253 156 120 278 244 218 249 245 242 219 167 185 215 216 213 213 205 208 220 223 227 233 248
347 345 343 341 340 342 345 341 336 342 3 11 24 68 145 323 299 268 282 321 292 258 232 254 233 261 267 264 269 242 83 18 324 313 254 143 42 1 282 52 69 318 310 19 31 5 28 287 259 248 209 152 113 117 106 92 77 74 96 111 175 245 257 285 331 331 116 103 292 295 260 259 252 234 210 183 198 219 216 214 212 198 205 215 219 221 218 235
347 345 344 342 341 342 344 342 342 358 11 35 55 52 357 348 331 254 163 82 297 303 269 256 217 263 290 289 219 146 86 63 309 310 262 136 29 166 147 56 63 344 344 56 123 84 23 266 274 272 175 124 76 78 96 83 75 87 109 123 220 264 217 292 323 353 61 97 157 126 309 286 296 276 239 215 210 236 208 207 205 193 205 213 212 210 202 210
347 346 344 343 342 343 344 346 9 7 9 79 66 22 5 1 6 115 135 66 308 300 268 236 227 225 268 336 136 126 91 170 191 293 249 125 74 102 148 131 84 16 330 116 124 125 235 263 316 30 93 109 89 87 110 112 78 40 138 143 184 214 176 203 259 38 30 20 87 66 7 315 333 337 279 278 231 238 194 187 209 211 207 206 202 205 205 204
347 345 344 345 343 342 344 353 20 2 12 115 36 8 13 9 1 27 114 65 337 300 300 291 324 263 269 339 213 151 87 203 222 255 200 121 128 107 334 151 92 6 293 126 105 100 260 274 23 58 65 93 103 106 135 135 94 346 216 189 189 173 160 151 143 81 41 351 315 58 36 303 321 325 281 306 289 230 207 196 217 218 203 194 197 204 206 206
346 345 344 346 343 343 350 54 355 352 17 68 7 360 8 10 355 14 95 61 358 300 321 322 14 334 318 343 334 70 57 322 263 246 91 114 133 100 38 309 56 63 181 143 112 130 257 354 52 91 94 89 89 104 174 142 100 10 239 185 150 126 138 147 140 102 81 265 289 70 124 265 319 332 289 299 287 253 240 230 226 212 202 198 199 202 197 202
345 344 344 344 343 345 350 321 341 352 83 351 353 355 357 6 357 23 71 49 23 281 309 288 350 8 326 347 36 72 76 284 293 50 100 140 110 51 53 303 359 72 179 110 85 186 232 5 29 44 65 66 64 97 187 139 103 215 225 130 128 133 157 166 138 109 167 205 336 21 109 151 309 288 280 297 302 290 275 247 229 208 208 205 201 200 193 198
343 343 343 341 341 342 336 323 336 357 36 338 344 350 348 358 358 76 79 72 253 267 308 291 322 335 316 352 46 74 210 275 24 302 338 66 41 28 60 198 167 191 2 94 140 254 231 16 4 60 65 69 146 210 191 137 110 236 199 121 136 149 154 155 127 106 5 58 345 322 64 102 280 273 295 334 343 307 286 258 237 209 207 206 204 204 197 197
341 342 341 338 338 339 334 325 320 325 346 340 345 344 336 1 47 68 76 97 269 298 114 347 325 319 335 7 25 13 315 14 116 263 331 54 46 41 89 169 142 125 14 95 157 244 253 252 220 110 73 56 250 259 190 144 104 203 132 88 70 72 77 88 104 104 37 41 277 277 252 149 277 291 321 359 4 296 282 274 252 206 202 203 199 201 198 195
339 340 338 334 334 335 324 315 304 335 344 339 340 340 357 51 57 67 58 183 272 303 203 338 311 334 29 49 357 339 8 340 320 324 5 42 8 28 92 147 104 98 15 39 88 256 306 306 160 104 70 224 213 219 173 180 236 132 106 65 57 45 43 55 59 85 64 358 264 262 230 138 290 290 288 302 256 269 283 303 307 214 201 208 200 196 192 189
337 339 335 329 326 320 312 311 327 346 341 338 338 351 86 36 62 90 99 221 228 310 1 339 303 15 43 75 11 343 27 353 337 11 26 5 1 14 40 56 57 55 16 11 14 336 350 8 1 311 289 106 89 88 95 1 55 104 84 63 82 16 14 34 2 39 75 289 264 268 250 125 127 276 279 279 268 264 255 276 307 321 216 219 209 196 192 187
336 337 332 323 312 291 263 256 320 332 335 339 343 37 85 33 39 105 279 304 300 274 20 292 294 19 28 42 28 335 5 15 7 50 70 32 39 29 22 118 119 32 7 334 349 355 2 351 320 319 325 50 61 48 350 0 31 60 56 61 81 10 7 17 336 10 98 246 263 294 296 127 212 251 272 296 295 285 250 240 287 323 286 233 220 204 195 185
335 334 329 314 297 280 261 268 302 319 330 338 359 59 74 77 187 222 276 339 253 239 167 262 306 9 42 42 14 331 13 32 8 47 79 78 68 38 334 248 134 92 119 194 31 12 341 315 344 358 350 31 82 90 355 345 14 37 78 90 94 86 53 328 291 350 321 280 286 306 327 344 293 273 270 292 298 289 279 264 282 316 287 216 209 200 191 189
336 335 327 304 290 284 272 275 287 308 329 350 61 67 67 98 214 203 242 274 237 311 355 265 343 12 50 50 336 315 49 35 10 46 38 37 52 19 339 344 19 78 108 84 73 81 65 330 343 359 326 350 53 117 141 126 59 46 158 132 122 142 131 211 240 184 282 286 301 320 10 133 274 291 280 286 291 294 317 358 46 40 49 135 143 147 173 199
336 334 322 299 294 292 272 250 249 307 337 28 68 69 111 190 237 188 221 249 225 7 330 29 53 42 19 351 330 352 101 48 19 48 40 42 72 17 336 324 345 49 96 76 44 103 86 248 275 286 284 353 11 264 140 100 58 276 151 87 68 168 136 124 164 175 196 320 337 335 305 212 227 274 294 313 327 342 3 13 34 40 38 74 94 125 177 209
337 338 325 292 304 316 238 191 196 322 10 72 66 67 168 208 202 171 208 216 137 146 152 11 45 58 0 327 338 353 33 56 43 51 31 31 65 8 346 282 320 23 107 117 156 137 76 250 283 323 339 28 39 315 69 88 156 288 50 61 237 163 117 111 145 40 60 72 1 349 309 300 328 288 309 353 8 354 356 357 358 2 20 63 93 161 190 209
339 341 325 289 321 109 156 164 176 344 42 84 90 167 217 215 173 177 212 162 116 107 96 53 25 67 355 335 334 330 355 27 40 57 38 18 4 340 336 295 314 27 157 143 143 175 124 247 297 351 4 334 35 36 14 48 118 108 85 202 210 91 93 109 108 13 35 72 299 356 334 307 5 115 319 358 4 335 333 337 333 332 352 27 120 197 204 209
336 334 316 311 326 161 167 191 235 32 63 76 84 233 224 186 181 196 193 152 129 77 81 103 153 130 175 110 340 315 358 30 10 50 72 39 13 334 344 311 328 17 1 131 92 50 105 338 296 287 222 293 344 58 17 350 22 99 141 169 106 91 349 14 76 61 23 69 297 324 323 277 202 229 311 340 329 306 309 319 323 320 325 329 292 228 217 215
337 337 344 352 352 181 197 229 240 54 66 78 158 227 215 225 257 230 183 136 94 80 82 155 166 85 138 133 148 318 25 71 68 67 91 69 41 29 25 317 308 359 10 91 105 330 63 89 287 280 264 314 0 47 29 323 343 28 55 23 38 121 138 22 77 134 134 128 223 313 348 300 231 222 245 277 279 277 284 299 305 292 284 284 279 265 231 213
354 45 333 350 36 175 189 190 57 54 67 147 191 200 254 241 275 290 224 151 91 96 118 175 148 85 116 146 149 65 43 64 89 83 83 89 99 3 343 336 303 338 13 63 88 23 32 83 258 301 331 14 22 27 103 280 333 21 34 19 5 17 49 99 64 70 110 128 165 148 348 276 255 216 208 250 269 259 247 257 276 280 271 257 258 264 250 224
30 81 312 350 67 154 146 74 49 64 98 158 191 215 284 230 44 329 309 132 118 128 136 145 141 119 134 104 57 70 64 51 50 80 81 70 107 121 309 80 326 306 26 45 45 45 31 85 114 324 359 48 264 264 271 269 173 128 93 68 124 330 72 107 16 337 69 102 157 148 236 268 260 213 216 248 273 276 256 238 254 271 271 259 247 244 243 235
70 80 316 1 107 150 100 61 337 71 122 185 212 210 293 51 94 333 328 23 80 74 73 105 119 106 119 115 62 77 90 52 14 62 96 86 137 186 279 10 322 252 92 65 330 283 129 98 81 9 292 205 265 274 290 213 131 116 89 106 135 65 88 114 182 269 38 64 146 128 93 270 265 253 252 261 274 285 275 249 258 269 265 265 265 262 260 259
105 251 329 36 119 132 75 59 292 3 197 247 265 235 237 78 91 13 1 22 43 64 51 52 106 98 86 118 103 98 97 74 27 51 118 322 230 233 293 339 322 72 78 98 260 352 79 77 62 331 306 313 303 311 350 54 81 72 17 42 92 36 86 137 171 178 125 129 155 84 350 269 279 308 298 277 281 295 287 257 269 290 296 306 316 328 325 299
155 254 301 26 78 99 84 153 207 286 285 307 8 1 292 85 81 65 57 28 21 99 87 42 21 97 77 74 91 103 118 108 68 7 130 129 282 272 325 355 11 75 59 161 179 79 68 64 70 59 9 349 339 344 345 353 32 62 308 323 8 68 85 118 140 77 52 204 157 123 233 256 274 312 314 305 321 324 305 279 247 268 292 310 322 333 325 295
16 240 268 332 21 78 128 184 153 152 269 351 52 4 17 46 42 80 126 79 47 111 111 66 349 84 72 58 63 51 54 104 120 336 57 105 295 309 354 360 25 72 56 131 109 87 108 127 108 110 119 168 227 275 272 303 347 350 307 322 340 53 78 159 137 66 354 228 150 150 216 263 293 312 313 312 331 324 306 304 288 259 275 293 309 327 329 327
38 231 267 325 8 63 115 189 110 125 186 119 110 323 61 86 345 340 83 82 53 66 78 51 11 55 47 51 63 35 13 43 90 91 73 1 297 299 334 351 36 60 66 80 70 71 100 91 101 131 152 176 188 220 227 176 40 338 327 325 332 13 53 89 86 72 206 183 193 218 208 267 301 302 304 305 308 292 286 301 308 297 290 289 297 312 338 17
92 228 175 110 342 7 338 325 80 117 201 146 135 231 134 133 325 351 39 67 78 71 68 39 25 62 81 81 87 57 5 18 41 58 69 291 280 292 318 7 33 5 8 66 53 70 95 54 60 131 161 197 194 212 218 102 167 224 279 310 318 332 24 84 151 232 158 106 300 263 195 209 275 276 288 296 297 287 279 288 296 297 292 287 302 319 45 69
165 214 162 145 213 234 232 261 170 129 142 142 126 112 131 115 83 73 58 48 36 50 81 49 9 30 146 135 113 102 22 30 27 17 264 297 322 334 346 17 17 350 3 36 13 83 105 92 215 140 235 255 234 257 87 124 228 226 213 256 293 311 264 199 219 209 151 150 252 242 180 220 262 275 288 288 281 272 273 275 279 302 317 331 26 39 45 50
72 233 277 20 186 201 208 252 186 144 143 136 77 85 145 133 112 169 187 56 23 6 78 113 333 338 129 125 111 124 159 125 89 275 224 56 21 25 22 17 344 2 31 36 359 78 115 122 220 102 17 327 315 329 29 91 305 308 278 253 265 276 239 212 214 199 178 206 231 175 178 256 257 257 274 285 275 257 266 294 317 359 353 4 74 70 59 53
84 174 259 31 31 250 249 350 123 148 156 14 140 162 145 136 136 174 23 84 115 338 56 123 175 209 133 112 100 125 189 170 152 197 179 118 24 213 145 202 238 2 22 47 9 25 76 23 221 92 49 325 325 346 8 36 45 297 304 301 310 329 324 202 225 140 169 279 306 65 12 287 266 260 279 292 299 276 260 2 2 358 341 14 81 65 43 31
242 214 165 93 39 303 306 23 113 138 153 247 168 170 142 159 165 148 64 86 155 171 141 144 154 134 75 76 94 134 194 171 152 180 175 155 175 195 201 206 181 3 2 46 32 6 62 69 25 70 60 295 314 350 339 0 56 24 327 324 326 345 13 1 326 52 57 320 338 22 0 282 291 330 319 313 335 343 37 60 22 356 351 18 51 36 11 353
277 262 123 108 96 303 28 75 56 133 182 209 175 175 181 193 182 126 90 3 43 82 141 151 148 110 72 84 126 183 198 182 176 190 172 144 125 123 113 154 153 133 126 137 88 353 109 117 137 95 89 269 294 347 344 17 43 5 301 292 311 346 34 31 358 359 355 330 299 314 267 265 303 342 338 333 346 351 355 37 20 357 3 8 357 341 327 311